Location: Brookfield Center
(41.2406°N, 80.5579°W)
Time: 00:34:11
(UTC+00:00)

Cosmos 1758 Rocket - Pass Details

Date: 18 January 2020
Orbit: 603 x 635 km, 82.5° (Epoch: 23 February)

Event Time Altitude Azimuth Distance (km) Brightness Sun altitude
Rises 00:16:09 0° 191° (S) 2,852 7.2 -21.5°
Reaches altitude 10° 00:18:22 10° 193° (SSW) 1,949 6.4 -21.9°
Maximum altitude 00:22:40 73° 279° (W) 637 3.7 -22.7°
Enters shadow 00:25:04 26° 359° (N) 1,215 4.9 -23.2°
